Regional Weather Roundup
Issued by NWS Newport/Morehead, NC

Current Version | Previous Version | Text Only | Print | Product List | Glossary Off
Versions: 1 2 3 4 5 6 7 8 9 10 11 12 13 14 15 16 17 18 19 20 21 22 23 24 25 26 27 28 29 30 31 32 33 34 35 36 37 38 39 40 41 42 43 44 45 46 47 48 49 50

000
ASUS42 KMHX 201125
RWRMHX
WEATHER ROUNDUP FOR EASTERN NORTH CAROLINA
NATIONAL WEATHER SERVICE NEWPORT/MOREHEAD CITY NC
600 AM EST FRI JAN 20 2017

NOTE: "FAIR" INDICATES FEW OR NO CLOUDS BELOW 12,000 FEET
WITH NO SIGNIFICANT WEATHER AND/OR OBSTRUCTIONS TO VISIBILITY

NCZ015>017-031-032-045>047-102-103-201200-
NORTH COAST

CITY           SKY/WX    TMP DP  RH WIND       PRES   REMARKS
EDENTON        CLOUDY    46  43  88 CALM      29.99S
ELIZABETH CITY CLOUDY    43  42  97 S3        29.99S
KITTY HAWK     NOT AVBL
MANTEO         CLOUDY    43  43 100 CALM      30.00S

$$

NCZ045>047-081-094-103-104-201200-
CENTRAL COAST

CITY           SKY/WX    TMP DP  RH WIND       PRES   REMARKS
FRISCO         CLOUDY    48  42  80 NE6       29.97F

$$

NCZ095-097-098-100-101-201200-
SOUTHERN COAST

CITY           SKY/WX    TMP DP  RH WIND       PRES   REMARKS
BEAUFORT       CLOUDY    49  47  93 NE5       29.95F
CEDAR ISLAND   NOT AVBL
JACKSONVILLE   CLOUDY    48  47  96 CALM      29.94S
PINEY ISLAND   CLOUDY   N/A N/A N/A E7        29.96F
WILMINGTON     CLOUDY    53  51  93 NE3       29.93S


$$

NCZ011>013-027>030-043-044-078>080-089-090>093-098-201200-
COASTAL PLAIN

CITY           SKY/WX    TMP DP  RH WIND       PRES   REMARKS
AHOSKIE        CLOUDY    42  40  93 CALM      29.98R
CLINTON        CLOUDY    50  47  88 CALM      29.93S
ELIZABETHTOWN  CLOUDY    49  47  93 CALM      29.91F
GOLDSBORO      CLOUDY    44  44 100 E7        29.91F
GREENVILLE     CLOUDY    43  43 100 SE3       29.98S FOG
HAVELOCK       CLOUDY    47  44  90 CALM      29.96F
KENANSVILLE    CLOUDY    45  45 100 CALM      29.94F
KINSTON        CLOUDY    43  42  96 CALM      29.96S
NEW BERN       CLOUDY    47  44  90 E6        29.96F
RICHLANDS      CLOUDY    45  44  97 E3        29.95S
ROCKY MOUNT    CLOUDY    42  42 100 CALM      29.95F
WASHINGTON     CLOUDY    43  41  91 E3          N/A
WHITEVILLE     MOCLDY    50  47  92 CALM      29.90F

$$

AMZ130-135-150-152-154-156-158-170-250-252-270-ANZ085-086-088-633-658-670-201200-
MARINE OBSERVATIONS

STATION/POSITION TIME  TEMP    WIND        PRES    WAVE   SWELL
                       AIR SEA DIR/SP/G            HT/PER HT/PER
                 (UTC) (F)     (DEG/KT/KT) (MB)    (FT/S) (FT/S)
CHESAPEAKE LIGHT NOT AVBL
64 E VA BEACH    1050   51 56  220/  2/  4 1015.0    6/13   5/13
DUCK             1100   46 45  160/  5/  5 1015.0
2 E DUCK         1100      45                N/A     4/11   2/11
OREGON INLET     1100   45 49  180/  2/  2 1015.8
13E OREGON INLT  NOT AVBL
HATTERAS CG      1100   49 55   60/  6/  7 1014.5
DIAMOND BUOY     1050   59 76   70/  6/  8 1015.0    5/13   5/13
CAPE LOOKOUT     1100   62      90/  9/ 10 1013.7
BEAUFORT LAB     1100   50 51   30/  5/  7 1013.1
30 SE NEW RVR IN 1108   62 64  100/  8/ 12 1013.6
30 SE NEW RVR IN 1113      63                N/A     3/ 8   2/13
27 SE WRIGHTSVLE 1108   66 71   90/ 12/ 17 1012.8
5 SE WRIGHTSVLE  1008   58      90/  6/ 10 1013.0
225 S CAPE HAT   1050   68 71  160/  6/ 10 1015.1    5/ 9   5/ 9
41 SE CHARLESTON 1050   70 71  200/  8/ 10 1012.1    2/ 9   2/ 9

$$



USA.gov is the U.S. government's official web portal to all federal, state and local government web resources and services.